www.pogodaiklimat.ru

Погода и климат >> Архив погоды >> Антарктида >> Mawson


ПОГОДА в Mawson

  • Прогноз погоды в Mawson
  • Монитор погоды в Mawson
  • Климат города

АРХИВ ПОГОДЫ в Mawson

Время (UTC), дата Ветер
(напр.,м/с)
 
Видим.   Явления Облачность Т
(С)
Тd
(С)
f
(%)
Тe
(С)
Тes
(С)
Комфортность P
(гПа)
Po
(гПа)
Тmin
(С)
Tmax
(С)
R
(мм)
R24
(мм)
S
(см)
00 18.05 З 3 н/о н/о -21.7 -31.6 40 -30 -30 993.4 991.3
03 18.05 ЮВ 11 н/о н/о -22.6 -30.1 50 -37 -37 опасность
обморожения
993.2 991.1 -24.0
06 18.05 ЮВ 12 30 км ясно -20.1 -28.5 47 -35 -35 опасность
обморожения
993.1 991.0
09 18.05 Ю 14 30 км 6/0
[Ac trans]
-17.9 -26.4 47 -33 -33 опасность
обморожения
993.6 991.5
12 18.05 ЮВ 16 30 км 1/1 1500 м
[Sc]
-17.8 -27.0 44 -33 -33 опасность
обморожения
995.4 993.3
15 18.05 Ю 15 н/о н/о -19.3 -27.1 50 -35 -35 опасность
обморожения
997.1 995.0 -16.4
18 18.05 ЮВ 14 н/о н/о -15.7 -26.7 38 -30 -30 998.0 995.9
21 18.05 ЮВ 15 н/о н/о -16.0 -25.9 42 -31 -31 опасность
обморожения
999.1 997.0
00 19.05 ЮВ 18 н/о н/о -15.4 -25.9 40 -31 -31 опасность
обморожения
999.1 997.0
03 19.05 ЮВ 24 30 км позёмок 3/3 1500 м
[Sc]
-16.0 -25.9 42 -33 -33 опасность
обморожения
998.5 996.4 -23.3
06 19.05 ЮВ 24 15 км позёмок 8/8 1500 м
[Sc]
-15.0 -25.5 40 -32 -32 опасность
обморожения
998.7 996.6
09 19.05 ЮВ 22 15 км позёмок 10/10 1500 м
[Sc]
-13.6 -22.9 45 -29 -29 998.5 996.4
12 19.05 ЮВ 22 10 км позёмок 10/10 1500 м
[Sc]
-14.1 -18.0 72 -30 -30 997.5 995.4
15 19.05 ЮВ 24 н/о н/о -14.1 -16.8 80 -30 -30 997.1 995.0 -13.3
18 19.05 ЮВ 16 н/о н/о -13.3 -18.1 67 -27 -27 998.0 995.9
21 19.05 ЮВ 15 н/о н/о -13.7 -17.0 76 -27 -27 997.5 995.4
00 20.05 ЮВ 15 н/о н/о -14.5 -17.3 79 -28 -28 996.3 994.2
03 20.05 ЮВ 14 1000 м метель н/о -15.3 -18.4 77 -29 -29 995.2 993.1 -17.7
06 20.05 ЮВ 13 5000 м позёмок 10/10 1000 м
[Sc]
-15.3 -19.2 72 -29 -29 994.9 992.8
09 20.05 ЮВ 10 3000 м позёмок 10/10 1000 м
[Sc]
-15.2 -19.2 71 -27 -27 994.7 992.6
12 20.05 ЮВ 6 2000 м слабый ливневой снег 10/10 600 м
[Sc]
-15.8 -19.8 71 -26 -26 994.9 992.8
15 20.05 ЮВ 9 н/о н/о -16.5 -21.7 64 -28 -28 994.9 992.8 -12.7
18 20.05 В 7 н/о н/о -16.7 -22.4 61 -27 -27 995.5 993.4
21 20.05 В 5 н/о н/о -17.5 -22.0 68 -27 -27 996.0 993.9
00 21.05 ЮВ 12 н/о н/о -19.9 -24.6 66 -34 -34 опасность
обморожения
996.3 994.2
03 21.05 ЮВ 10 30 км 1/1 1000 м
[Sc]
-22.0 -26.9 64 -36 -36 опасность
обморожения
997.5 995.4 -20.0
06 21.05 ЮВ 12 15 км позёмок {метель} 8/6 1500 м
[Sc Ac trans Ci fib]
-23.5 -28.0 66 -39 -39 опасность
обморожения
998.7 996.6
09 21.05 ЮВ 10 20 км позёмок 9/9 1500 м
[Sc]
-22.6 -29.3 54 -37 -37 опасность
обморожения
1000.1 998.0
12 21.05 ЮВ 11 20 км позёмок 9/9 1000 м
[Sc]
-22.9 -28.1 62 -38 -38 опасность
обморожения
1001.6 999.5
15 21.05 ЮВ 9 н/о н/о -21.0 -29.3 47 -34 -34 опасность
обморожения
1003.2 1001.1 -15.6
18 21.05 ЮВ 8 н/о н/о -21.1 -29.6 46 -34 -34 опасность
обморожения
1004.8 1002.7
21 21.05 ЮВ 12 н/о н/о -21.3 -29.3 48 -37 -37 опасность
обморожения
1006.3 1004.2
00 22.05 ЮЗ 3 н/о н/о -22.1 -31.2 43 -30 -30 1009.4 1007.3
03 22.05 ЮВ 11 30 км позёмок 3/3 1500 м
[Sc]
-22.8 -29.3 55 -38 -38 опасность
обморожения
1010.0 1007.9 -24.5
06 22.05 ЮВ 14 30 км позёмок {метель} 9/9 1500 м
[Sc]
-20.2 -27.3 53 -36 -36 опасность
обморожения
1009.5 1007.4
09 22.05 В 9 30 км 10/3 1500 м
[Sc As trans]
-20.3 -29.6 43 -33 -33 опасность
обморожения
1010.7 1008.6
12 22.05 СВ 6 30 км 10/1 1000 м
[Sc As trans]
-19.6 -26.5 54 -30 -30 1008.6 1006.5
15 22.05 В 8 н/о н/о -19.6 -25.0 62 -32 -32 опасность
обморожения
1007.4 1005.3 -18.7
18 22.05 ЮВ 20 н/о н/о -15.8 -17.6 86 -32 -32 опасность
обморожения
999.3 997.2
21 22.05 ЮВ 20 н/о н/о -14.3 -15.8 88 -30 -30 995.1 993.0
00 23.05 ЮВ 26 н/о н/о -13.7 -15.0 90 -30 -30 989.0 986.9
03 23.05 ЮВ 29 <100 м сильная метель н/о -13.7 -15.0 90 -31 -31 опасность
обморожения
983.6 981.5 -24.4
06 23.05 ЮВ 34 <100 м сильная метель н/о -12.8 -14.0 91 -30 -30 978.7 976.6
09 23.05 ЮВ 32 <100 м сильная метель н/о -12.7 -14.0 90 -30 -30 975.1 973.1
12 23.05 ЮВ 31 <100 м сильная метель н/о -12.9 -14.6 87 -30 -30 973.8 971.8
15 23.05 ЮВ 29 н/о н/о -12.8 -17.1 70 -30 -30 972.8 970.8 -11.9
18 23.05 ЮВ 25 н/о н/о -11.9 -18.3 59 -27 -27 973.3 971.3
21 23.05 ЮВ 24 н/о н/о -12.8 -16.4 74 -28 -28 973.1 971.1
00 24.05 ЮВ 19 н/о н/о -14.2 -15.9 87 -29 -29 975.1 973.1
03 24.05 ЮВ 21 300 м метель н/о -13.6 -17.7 71 -29 -29 974.3 972.3 -14.8
06 24.05 ЮВ 27 100 м сильная метель н/о -13.9 -16.4 81 -31 -31 опасность
обморожения
972.6 970.6
09 24.05 ЮВ 28 <100 м сильная метель н/о -13.8 -15.1 90 -31 -31 опасность
обморожения
971.6 969.6
12 24.05 ЮВ 29 <100 м сильная метель н/о -13.2 -14.5 90 -30 -30 971.0 969.0
15 24.05 ЮВ 26 н/о н/о -12.8 -14.0 91 -29 -29 971.6 969.6 -11.5
18 24.05 ЮВ 24 н/о н/о -10.4 -12.1 87 -25 -25 970.8 968.8
21 24.05 ЮВ 22 н/о н/о -10.2 -11.5 90 -25 -25 970.8 968.8

 

Местоположение метеостанции Mawson (Антарктида): широта -67.60 долгота 62.87 высота над уровнем моря 16 м.

В архиве по умолчанию представлена погода в Mawson за последнюю неделю. Архивные данные за месяц целиком и за предыдущие месяцы, начиная с января 2011 года, Вы можете получить, выбрав интересующий диапазон дат из раскрывающегося списка и нажав кнопку "Ввод!".


*Определитесь, кто Вы:
робот инопланетянин человек

Внимание! Время в таблицах - всемирное. Для получения местного времени необходимо прибавить поправку, которая в Mawson равна 0 ч.

Смотрите также архив погоды в соседних городах и на ближайших метеорологических станциях:

Погода в Amery Ice Shelf (Антарктида) (459 км)
Погода в Druzhnaya-4 (Антарктида) (497 км)
Погода в Bharati (Антарктида) (578 км)
Погода в Zhongshan (Антарктида) (583 км)
Погода в Progress (Антарктида) (584 км)
Погода в Davis (Антарктида) (634 км)
Погода в Davis (Whoop Whoop) (Антарктида) (669 км)
Погода в Molodezhnaya (Антарктида) (718 км)
Погода в Relay Station (Антарктида) (1007 км)
Погода в Dome Plateau Eagle (Антарктида) (1087 км)

Пояснения к столбцам:

Ветер - указаны скорость ветра в м/с - средняя за 10 мин, порывы в срок и между сроками (в фигурных скобках) и направление, откуда дует ветер: С - северный, СВ - северо-восточный, В - восточный, ЮВ - юго-восточный, Ю - южный, ЮЗ - юго-западный, З - западный, СЗ - северо-западный.
Видимость - горизонтальная дальность видимости в метрах или километрах. При видимости от 1 до 10 км при отсутствии осадков обычно наблюдается дымка, при ухудшении видимости до 1 км и менее - туман. В сухую погоду видимость может ухудшаться дымом, пылью или мглою.
Явления - указаны атмосферные явления, наблюдавшиеся в срок или в последний час перед сроком; фигурными скобками обозначены явления, наблюдавшиеся между сроками (за 1-3 часа до срока); квадратными скобками обозначены град или гололедные отложения с указанием их диаметра в мм.
Облачность - указаны через наклонную черту общая и нижняя облачность в баллах и высота нижней границы облаков в метрах; квадратными скобками обозначены формы облаков: Ci - перистые, Cs - перисто-слоистые, Cc - перисто-кучевые, Ac - высококучевые, As - высокослоистые, Sc - слоисто-кучевые, Ns - слоисто-дождевые, Cu - кучевые, Cb - кучево-дождевые. Подробнее классификацию облаков см. в Атласе облаков (PDF).
T - Температура воздуха - температура, измеренная на высоте 2 м над землей.
Td - Температура точки росы - температура, при понижении до которой содержащийся в воздухе водяной пар достигнет насыщения.
f - Относительная влажность воздуха - влажноcть воздуха, измеренная на высоте 2 м над землей.
Te - Эффективная температура - температура, которую ощущает одетый по сезону человек в тени. Характеристика душности погоды. При расчете учитывается влияние влажности воздуха и скорости ветра на теплоощущения человека.
Tes - Эффективная температура на солнце - температура, которую ощущает человек, с поправкой на солнечный нагрев. Характеристика знойности погоды. Зависит от высоты солнца над горизонтом, облачности и скорости ветра. Ночью, в пасмурную погоду, а также при ветре 12 м/с и более поправка равна нулю.
P - Атмосферное давление - приведенное к уровню моря атмосферное давление.
Po - Атмосферное давление - измеренное на уровне метеостанции атмосферное давление.
Tmin - Минимальная температура - минимум температуры воздуха на высоте 2 м над землей.
Tmax - Максимальная температура - максимум температуры воздуха на высоте 2 м над землей.
R - Количество осадков - Количество выпавших осадков за период времени, мм. При наведении курсора мыши на число - период времени, за который выпало указанное количество осадков.
R24 - Количество осадков - Количество выпавших осадков за 24 часа, мм.
S - Снежный покров - Высота снежного покрова, см. При наведении курсора мыши на число - состояние снежного покрова и степень покрытия местности в баллах.